User: anonymous   Login
Location: Vancouver
(49.2500°N, 123.1330°W)
Time: 16:42:53
(UTC-07:00)
Language:

Iridium 21 - Orbit

View from above orbital plane
View from above orbital plane
View from above satellite
View from above satellite

Ground track
Ground track

The orbit data is extracted from the following two-line orbital elements,

1 25778U 99032B   16181.50844618 -.00000044  00000-0 -22615-4 0  9995
2 25778  86.3947  11.4061 0002080  88.4605 271.6829 14.34216886897565
Epoch (UTC): 29 June 2016 12:12:09
Eccentricity: 0.0002080
inclination: 86.3947°
perigee height: 776 km
apogee height: 779 km
right ascension of ascending node: 11.4061°
argument of perigee: 88.4605°
revolutions per day: 14.34216886
mean anomaly at epoch: 271.6829°
orbit number at epoch: 89756

The dashed part of the orbit path shows where the satellite is in the earth's shadow,  

DLR